, CO

(GMT )
Mount Werner

Weather History for K3MW - June, 2013

Change the Weather History Date:

Sunday, June 30, 2013

  Actual Average Record
Temperature  
Mean Temperature 65 °F -  
Max Temperature 77 °F - - ()
Min Temperature 53 °F - - ()
Growing Degree Days 15 (Base 50)    
Moisture  
Dew Point 33 °F    
Average Humidity 37    
Maximum Humidity 55    
Minimum Humidity 8    
Precipitation  
Precipitation 0.00 in - - ()
Sea Level Pressure  
Sea Level Pressure 30.40 in    
Wind  
Wind Speed 9 mph (NNW)    
Max Wind Speed 18 mph    
Max Gust Speed 28 mph    
Visibility 10 miles    
Events Thunderstorm    
T = Trace of Precipitation, MM = Missing Value Source: NWS Daily Summary

Daily Weather History Graph

Daily Weather History Graph

Search for Another Location

Airport or City:

Trip Planner

Search our weather history database for the weather conditions in past years. The results will help you decide how hot, cold, wet, or windy it might be!

Date:

Astronomy

Jun. 30, 2013 Rise Set
Actual Time 5:40 AM MDT 8:41 PM MDT
Civil Twilight 5:07 AM MDT 9:14 PM MDT
Nautical Twilight 4:25 AM MDT 9:56 PM MDT
Astronomical Twilight 3:35 AM MDT 10:45 PM MDT
Moon 12:41 AM MDT (6/30) 1:58 PM MDT (6/30)
Length of Visible Light 16h 07m
Length of Day
15h 01m
Last Quarter, 45% of the Moon is Illuminated
Jun 30
Last Quarter
Jul 8
New
Jul 15
First Quarter
Jul 22
Full
Jul 29
Last Quarter

Hourly Weather History & Observations

Time (MDT) Temp. Dew Point Humidity Pressure Visibility Wind Dir Wind Speed Gust Speed Precip Events Conditions
12:18 AM 53.6 °F 37.4 °F 54% 30.41 in 10.0 mi ESE 17.3 mph 24.2 mph N/A   Clear
12:38 AM 55.4 °F 35.6 °F 47% 30.40 in 10.0 mi ESE 18.4 mph - N/A Thunderstorm Mostly Cloudy
12:58 AM 55.4 °F 32.0 °F 41% 30.40 in 10.0 mi East 10.4 mph - N/A   Scattered Clouds
1:18 AM 59.0 °F 28.4 °F 31% 30.40 in 10.0 mi SW 3.5 mph - N/A   Clear
1:38 AM 60.8 °F 26.6 °F 27% 30.40 in 10.0 mi WSW 4.6 mph - N/A   Clear
1:58 AM 60.8 °F 28.4 °F 29% 30.39 in 10.0 mi West 3.5 mph - N/A   Clear
2:18 AM 59.0 °F 28.4 °F 31% 30.39 in 10.0 mi West 3.5 mph - N/A   Scattered Clouds
2:38 AM 59.0 °F 28.4 °F 31% 30.40 in 10.0 mi Calm Calm - N/A   Scattered Clouds
2:58 AM 59.0 °F 30.2 °F 34% 30.40 in 10.0 mi ENE 4.6 mph - N/A   Clear
3:18 AM 55.4 °F 35.6 °F 47% 30.39 in 10.0 mi NE 11.5 mph 18.4 mph N/A   Clear
3:38 AM 53.6 °F 35.6 °F 51% 30.39 in 10.0 mi NE 10.4 mph 16.1 mph N/A   Clear
3:58 AM 53.6 °F 35.6 °F 51% 30.39 in 10.0 mi NE 5.8 mph 17.3 mph N/A   Clear
4:18 AM 55.4 °F 33.8 °F 44% 30.39 in 10.0 mi Calm Calm - N/A   Clear
4:38 AM 55.4 °F 33.8 °F 44% 30.39 in 10.0 mi ESE 6.9 mph - N/A   Clear
4:58 AM 55.4 °F 33.8 °F 44% 30.39 in 10.0 mi East 5.8 mph - N/A   Clear
5:18 AM 55.4 °F 33.8 °F 44% 30.40 in 10.0 mi SE 3.5 mph - N/A   Clear
5:38 AM 57.2 °F 32.0 °F 38% 30.40 in 10.0 mi Calm Calm - N/A   Clear
5:58 AM 57.2 °F 32.0 °F 38% 30.40 in 10.0 mi SW 6.9 mph - N/A   Clear
6:18 AM 57.2 °F 32.0 °F 38% 30.40 in 10.0 mi SW 6.9 mph - N/A   Clear
6:38 AM 57.2 °F 32.0 °F 38% 30.39 in 10.0 mi WSW 6.9 mph - N/A   Clear
6:58 AM 55.4 °F 32.0 °F 41% 30.39 in 10.0 mi WSW 8.1 mph - N/A   Clear
7:18 AM 55.4 °F 32.0 °F 41% 30.40 in 10.0 mi West 5.8 mph - N/A   Clear
7:38 AM 55.4 °F 33.8 °F 44% 30.40 in 10.0 mi WNW 6.9 mph - N/A   Clear
7:58 AM 57.2 °F 33.8 °F 41% 30.40 in 10.0 mi NW 6.9 mph - N/A   Clear
8:18 AM 57.2 °F 33.8 °F 41% 30.41 in 10.0 mi NW 6.9 mph - N/A   Clear
8:38 AM 59.0 °F 33.8 °F 39% 30.42 in 10.0 mi NW 9.2 mph - N/A   Clear
8:58 AM 59.0 °F 33.8 °F 39% 30.42 in 10.0 mi NW 4.6 mph - N/A   Clear
9:18 AM 59.0 °F 33.8 °F 39% 30.42 in 10.0 mi WNW 6.9 mph - N/A   Clear
9:38 AM 59.0 °F 33.8 °F 39% 30.42 in 10.0 mi NNW 6.9 mph - N/A   Clear
9:58 AM 59.0 °F 33.8 °F 39% 30.42 in 10.0 mi WNW 3.5 mph - N/A   Clear
10:18 AM 60.8 °F 35.6 °F 39% 30.42 in 10.0 mi Calm Calm - N/A   Clear
10:38 AM 62.6 °F 32.0 °F 32% 30.42 in 10.0 mi NNW 5.8 mph - N/A   Clear
10:58 AM 64.4 °F 33.8 °F 32% 30.42 in 10.0 mi NW 12.7 mph 17.3 mph N/A   Clear
11:18 AM 62.6 °F 35.6 °F 37% 30.42 in 10.0 mi NW 11.5 mph 18.4 mph N/A   Clear
11:38 AM 62.6 °F 37.4 °F 39% 30.42 in 10.0 mi NW 12.7 mph 18.4 mph N/A   Clear
11:58 AM 62.6 °F 37.4 °F 39% 30.42 in 10.0 mi WNW 8.1 mph - N/A   Clear
12:18 PM 64.4 °F 33.8 °F 32% 30.41 in 10.0 mi WNW 6.9 mph 17.3 mph N/A   Clear
12:38 PM 64.4 °F 37.4 °F 37% 30.41 in 10.0 mi WNW 13.8 mph 20.7 mph N/A Thunderstorm Thunderstorm
12:58 PM 64.4 °F 41.0 °F 42% 30.41 in 10.0 mi West 11.5 mph 18.4 mph N/A Thunderstorm Thunderstorm
1:18 PM 64.4 °F 41.0 °F 42% 30.41 in 10.0 mi WNW 10.4 mph 16.1 mph N/A Thunderstorm Thunderstorm
1:38 PM 66.2 °F 37.4 °F 35% 30.41 in 10.0 mi WNW 11.5 mph 18.4 mph N/A Thunderstorm Scattered Clouds
1:58 PM 68.0 °F 37.4 °F 33% 30.41 in 10.0 mi WNW 6.9 mph 16.1 mph N/A   Mostly Cloudy
2:18 PM 64.4 °F 35.6 °F 34% 30.41 in 10.0 mi NW 9.2 mph - N/A   Overcast
2:38 PM 68.0 °F 37.4 °F 33% 30.40 in 10.0 mi NNW 4.6 mph - N/A Thunderstorm Mostly Cloudy
2:58 PM 68.0 °F 37.4 °F 33% 30.40 in 10.0 mi NW 3.5 mph - N/A   Scattered Clouds
3:18 PM 68.0 °F 35.6 °F 30% 30.40 in 10.0 mi NW 6.9 mph - N/A   Scattered Clouds
3:38 PM 66.2 °F 35.6 °F 32% 30.39 in 10.0 mi WNW 8.1 mph - N/A   Scattered Clouds
3:58 PM 66.2 °F 33.8 °F 30% 30.39 in 10.0 mi NW 5.8 mph - N/A   Clear
4:18 PM 71.6 °F 32.0 °F 23% 30.38 in 10.0 mi NW 5.8 mph 17.3 mph N/A   Scattered Clouds
4:38 PM 68.0 °F 32.0 °F 26% 30.38 in 10.0 mi North 3.5 mph - N/A   Scattered Clouds
4:58 PM 75.2 °F 12.2 °F 9% 30.37 in 10.0 mi NNW 9.2 mph - N/A   Scattered Clouds
5:18 PM 77.0 °F 12.2 °F 9% 30.37 in 10.0 mi North 3.5 mph - N/A   Scattered Clouds
5:38 PM 77.0 °F 12.2 °F 9% 30.37 in 10.0 mi North 5.8 mph 16.1 mph N/A   Mostly Cloudy
5:58 PM 73.4 °F 12.2 °F 10% 30.36 in 10.0 mi Calm Calm - N/A   Mostly Cloudy
6:18 PM 73.4 °F 6.8 °F 8% 30.36 in 10.0 mi NNW 6.9 mph 20.7 mph N/A   Mostly Cloudy
6:38 PM 71.6 °F 6.8 °F 8% 30.37 in 10.0 mi NNW 9.2 mph 18.4 mph N/A   Scattered Clouds
6:58 PM 68.0 °F 32.0 °F 26% 30.37 in 10.0 mi NNE 11.5 mph 19.6 mph N/A   Clear
7:18 PM 64.4 °F 35.6 °F 34% 30.38 in 10.0 mi NNE 10.4 mph 20.7 mph N/A   Clear
7:38 PM 62.6 °F 35.6 °F 37% 30.38 in 10.0 mi NNE 9.2 mph 20.7 mph N/A   Clear
7:58 PM 62.6 °F 37.4 °F 39% 30.37 in 10.0 mi NNE 9.2 mph 27.6 mph N/A   Clear
8:18 PM 59.0 °F 37.4 °F 45% 30.38 in 10.0 mi NE 9.2 mph 24.2 mph N/A   Clear
8:38 PM 59.0 °F 39.2 °F 48% 30.38 in 10.0 mi ENE 10.4 mph 21.9 mph N/A   Clear
8:58 PM 57.2 °F 41.0 °F 55% 30.38 in 10.0 mi ENE 16.1 mph 23.0 mph N/A   Clear
9:18 PM 55.4 °F 37.4 °F 51% 30.39 in 10.0 mi East 17.3 mph 27.6 mph N/A   Clear
9:38 PM 55.4 °F 37.4 °F 51% 30.40 in 10.0 mi ENE 12.7 mph 24.2 mph N/A   Clear
9:58 PM 55.4 °F 37.4 °F 51% 30.40 in 10.0 mi East 12.7 mph 21.9 mph N/A   Clear
10:18 PM 55.4 °F 37.4 °F 51% 30.41 in 10.0 mi NE 10.4 mph 23.0 mph N/A   Clear
10:38 PM 55.4 °F 35.6 °F 47% 30.42 in 10.0 mi ENE 8.1 mph 20.7 mph N/A   Clear
10:58 PM 55.4 °F 35.6 °F 47% 30.42 in 10.0 mi ENE 11.5 mph 21.9 mph N/A   Clear
11:18 PM 55.4 °F 35.6 °F 47% 30.42 in 10.0 mi ENE 10.4 mph 19.6 mph N/A   Clear
11:38 PM 55.4 °F 35.6 °F 47% 30.42 in 10.0 mi NE 10.4 mph 24.2 mph N/A   Clear
11:58 PM 55.4 °F 35.6 °F 47% 30.42 in 10.0 mi ENE 8.1 mph - N/A   Clear